Regional Weather Roundup
Issued by NWS New Orleans/Baton Rouge, LA

Home | Current Version | Previous Version | Text Only | Print | Product List | Glossary On
Versions: 1 2 3 4 5 6 7 8 9 10 11 12 13 14 15 16 17 18 19 20 21 22 23 24 25 26 27 28 29 30 31 32 33 34 35 36 37 38 39 40 41 42 43 44 45 46 47 48 49 50
015
ASUS44 KLIX 241801
RWRLIX
NEW ORLEANS REGIONAL WEATHER ROUNDUP
NATIONAL WEATHER SERVICE NEW ORLEANS LA
100 PM CDT FRI OCT 24 2014

NOTE: "FAIR" INDICATES FEW OR NO CLOUDS BELOW 12,000 FEET WITH NO
      SIGNIFICANT WEATHER AND/OR OBSTRUCTIONS TO VISIBILITY.
      SKY/WX - SKY CONDITION AND SIGNIFICANT WEATHER.
      TMP - AIR TEMPERATURE.     DP    - DEWPOINT TEMPERATURE.
      RH  - RELATIVE HUMIDITY.   PRES  - PRESSURE.
      HI  - HEAT INDEX.          WCI   - WIND CHILL INDEX.

*  THESE STATIONS ARE NOT NWS OR FAA STATIONS AND ARE NOT UNDER
   NWS QUALITY CONTROL.

LAZ038-040-048-061>063-065>067-069-241900-
SOUTHEAST LOUISIANA

CITY           SKY/WX    TMP DP  RH WIND       PRES   REMARKS
N.O. AUDUBON   NOT AVBL
N.O. INTL ARPT MOSUNNY   72  46  39 NE7       30.09F
6HR MIN TEMP:  60; 6HR MAX TEMP:  72;

N.O. LAKEFRONT SUNNY     70  49  47 VRB3      30.09F
6HR MIN TEMP:  62; 6HR MAX TEMP:  70;

N.O. DOWNTOWN*   N/A     72  43  35 N5        30.09F
6HR MIN TEMP:  59; 6HR MAX TEMP:  72;

SLIDELL        SUNNY     74  45  35 NE5       30.07F
6HR MIN TEMP:  47; 6HR MAX TEMP:  75;

BATON ROUGE    SUNNY     73  46  38 VRB5      30.10F
6HR MIN TEMP:  47; 6HR MAX TEMP:  73;

BOOTHVILLE     SUNNY     73  53  49 NE7       30.08F
6HR MIN TEMP:  67; 6HR MAX TEMP:  74;

BELLE CHASSE   MOSUNNY   75  45  34 VRB6      30.07F
6HR MIN TEMP:  50; 6HR MAX TEMP:  75;

BOGALUSA*        N/A     75  39  27 NE5       30.10F
6HR MIN TEMP:  45; 6HR MAX TEMP:  75;

NEW ROADS*       N/A     71  50  46 NW5       30.12F
6HR MIN TEMP:  47; 6HR MAX TEMP:  71;

GONZALES*        N/A     72  46  39 N6        30.09F
6HR MIN TEMP:  49; 6HR MAX TEMP:  72;

HAMMOND*       NOT AVBL
HOUMA*         SUNNY     75  48  38 N8        30.08F
PORT FOURCHON* CLEAR     73  50  43 NE5       30.11F

$$

MSZ070-080>082-241900-
SOUTHERN MISSISSIPPI

CITY           SKY/WX    TMP DP  RH WIND       PRES   REMARKS
MCCOMB         SUNNY     71  43  36 N9        30.11F
6HR MIN TEMP:  48; 6HR MAX TEMP:  71;

GULFPORT       SUNNY     74  43  32 NE8       30.06F
6HR MIN TEMP:  51; 6HR MAX TEMP:  75;

BILOXI         SUNNY     75  43  32 N7        30.05F
6HR MIN TEMP:  52; 6HR MAX TEMP:  75;

PASCAGOULA     SUNNY     74  47  38 VRB6      30.05F
6HR MIN TEMP:  43; 6HR MAX TEMP:  74;

STENNIS ARPT*  SUNNY     73  39  29 N7        30.07F

$$

COASTAL OBSERVATIONS
LAKE AND NEARSHORE STATIONS

STATION/POSITION TIME  TEMP    WIND        PRES    WAVE
                       AIR SEA DIR/SP/G            HT/PER
                 (UTC) (F)     (DEG/KT/KT) (MB)    (FT/S)
PASCAGOULA       1700   72     350/  4/  7 1017.5
WAVELAND YACHT   1700   69     330/  6/  7 1017.7
GRAND ISLE       1700   71 72  350/  3/  5 1019.2
SOUTHWEST PASS   1700   77 81  360/  9/ 12 1018.6
NEW CANAL        1700   66 70   10/  3/  4 1019.5
SHELL BEACH      1700   66 66  360/  6/  7 1018.8

OFFSHORE STATIONS

STATION/POSITION TIME  TEMP    WIND        PRES    WAVE
                       AIR SEA DIR/SP/G            HT/PER
                 (UTC) (F)     (DEG/KT/KT) (MB)    (FT/S)
64 S DAUPHIN ISL 1658   71 79   20/  8/ 12 1017.9    3/ 5

$$




USA.gov is the U.S. government's official web portal to all federal, state and local government web resources and services.